FENGYUN 1C DEB

Satellite information

Favourite Embed

Satellite Type and Status

DEBRISIN ORBIT

Key statistics

Satellite FENGYUN 1C DEB at a glance.

Uptime

9554

Days in orbit

Revolutions

≈ 14.6

Per day

Orbit

SSO

Sun Synchronous Orbit

Inclination

98.7

Latest

Satellite identification and parameters

Extended collection of information and parameters for FENGYUN 1C DEB.

Object identification

Identified? True

Debris? True

Object name: FENGYUN 1C DEB

International designator: 1999-025WR

Object number (NORAD): 30232

Object ID (CCSDS): 30232

Country: PEOPLES REPUBLIC OF CHINA (PRC)

Current information (Y/N): Y

RCS size: SMALL

Orbital parameters

Period: 98.487 minutes

Inclination: 98.7057 deg

SMA: 7064.46 km

Apoapsis: 785.347 km

Periapsis: 587.304 km

RAAN: 17.9893 deg

Eccentricy: 0.0140168

Argument of periapsis: 124.2577 deg

Mean anomaly: 298.5258 deg

Mean motion: 14.62124213 rev/day

Mean motion (dot): 0.00003723 rev/day2

B* drag term: 0.00065325 1/REarth

Two-line elements (TLE)

Creation date: July 5, 2025, 5:45 p.m.

Reference frame: TEME

Reference center: EARTH

Epoch: July 5, 2025, 12:13 p.m. UTC

TLE line 0: 0 FENGYUN 1C DEB

TLE line 1: 1 30232U 99025WR 25186.50955329 .00003723 00000-0 65325-3 0 9994

TLE line 2: 2 30232 98.7057 17.9893 0140168 124.2577 298.5258 14.62124213974097

Live tracking on map

Real-time ground track for satellite FENGYUN 1C DEB.

In-orbit conjunctions

A list of the most updated potential collisions computed for object FENGYUN 1C DEB.

Target Orbit TCA Probability of collision Miss distance Type
CZ-6A DEB LEO 2024-11-21 23:32:22 0.0001671038 484.0 (m) DEBRIS
CZ-6A DEB LEO 2024-11-15 02:52:42 0.0003725976 874.0 (m) DEBRIS

Associated space launch

Chinese polar orbiting meteorological satellite

FENGYUN 1C DEB was lifted into orbit during the mission ‘Long March 4B | Feng Yun 1C’, on board a Long March 4B space rocket.

The launch took place on May 10, 1999, 1:33 a.m. from Launch Complex 7.

For more information about the launch, click the button.

Launch to space Long March 4B | Feng Yun 1C
Long March 4B | Feng Yun 1C

Agency: N/A

Status: Launch Successful

Launch date: May 10, 1999, 1:33 a.m. UTC

Rocket: Long March 4B

Launch pad: Launch Complex 7

Location: Taiyuan Satellite Launch Center, People's Republic of China

...

Latest news about this satellite

There are no fresh news available about this satellite. Check back as we update our databases every day.


Newsletter sign-up

Weekly statistics, charts and insights to help you stay on top of the space industry.